Regional Weather Roundup
Issued by NWS

Home | Current Version | Previous Version | Text Only | Print | Product List | Glossary Off
Versions: 1 2 3 4 5 6 7 8 9 10 11 12 13 14 15 16 17 18 19 20 21 22 23 24 25 26 27 28 29 30 31 32 33 34 35 36 37 38 39 40 41 42 43 44 45 46 47 48 49 50

000
ASUS43 KLSX 202310
RWRMO

WEATHER SUMMARY FOR MISSOURI
NATIONAL WEATHER SERVICE SPRINGFIELD MO
600 PM CDT THU JUL 20 2017

NOTE: "FAIR" INDICATES FEW OR NO CLOUDS BELOW 12,000 FEET WITH NO
       SIGNIFICANT WEATHER AND/OR OBSTRUCTIONS TO VISIBILITY.
       CURRENT SKY AND/OR WEATHER CONDITIONS ARE NOT AVAILABLE FOR
       CHILLICOTHE AND FARMINGTON.

MOZ001>031-035>038-043-044-053-054-210000-
...NORTHERN AND WESTERN MISSOURI...

CITY           SKY/WX    TMP DP  RH WIND       PRES   REMARKS
KANSAS CTY INT MOSUNNY   95  75  52 SW10      29.96F HX 107
KANSAS C DTWN  SUNNY     97  75  49 S12       29.94F HX 109
LEE`S SUMMIT   SUNNY     96  74  48 S15       29.97F HX 107
ST JOSEPH      SUNNY     93  79  63 SW12      29.93F HX 110
CHILLICOTHE      N/A     95  80  61 S6        29.95F HX 114
KIRKSVILLE     SUNNY     94  77  57 SW10      29.97F HX 108

$$
MOZ066>068-077>081-088>096-101>105-210000-
...SOUTHWEST MISSOURI...

CITY           SKY/WX    TMP DP  RH WIND       PRES   REMARKS
SPRINGFIELD    SUNNY     94  70  45 W8        30.03F HX 100
JOPLIN         SUNNY     96  71  44 SW8       30.02F HX 103
BRANSON        MOSUNNY   93  68  43 W5        30.06F HX  97

$$
MOZ032>034-039>042-045>050-055>058-069>072-210000-
...CENTRAL MISSOURI...

CITY           SKY/WX    TMP DP  RH WIND       PRES   REMARKS
COLUMBIA       SUNNY     97  71  42 SW9       29.99F HX 104
JEFFERSON CITY PTSUNNY   98  73  44 W5        29.96F HX 108
ROLLA          SUNNY     93  71  48 S7        30.01F HX 100
WHITEMAN AFB   MOSUNNY   96  75  50 SW9G20    29.97F HX 107
WARRENSBURG    SUNNY     95  72  46 S9        29.97F HX 103
OSAGE BEACH    MOSUNNY   97  70  41 W3        30.00F HX 103

$$
MOZ051-052-059>065-210000-
...EAST CENTRAL MISSOURI...

CITY           SKY/WX    TMP DP  RH WIND       PRES   REMARKS
ST LOUIS INTL  MOSUNNY  100  68  35 W8        29.97F HX 105
SPIRIT OF STL  MOSUNNY   97  71  42 SW8       29.96F HX 104
ST CHARLES     SUNNY     99  68  36 MISG      29.94F HX 104

$$
MOZ072>076-082>087-097>100-106>115-210000-
...SOUTH CENTRAL AND SOUTHEAST MISSOURI...

CITY           SKY/WX    TMP DP  RH WIND       PRES   REMARKS
CAPE GIRARDEAU MOSUNNY   90  75  61 S6        30.00F HX 100
FARMINGTON     CLOUDY    93  76  57 S10       30.02F HX 105
POPLAR BLUFF   MOSUNNY   92  77  61 S7        30.00F HX 105
WEST PLAINS    SUNNY     93  70  46 SW8       30.06F HX  99

$$



USA.gov is the U.S. government's official web portal to all federal, state and local government web resources and services.